Regional Weather Roundup
Issued by NWS

Home | Current Version | Previous Version | Graphics & Text | Print | Product List | Glossary On
Versions: 1 2 3 4 5 6 7 8 9 10 11 12 13 14 15 16 17 18 19 20 21 22 23 24 25 26 27 28 29 30 31 32 33 34 35 36 37 38 39 40 41 42 43 44 45 46 47 48 49 50
000
ASUS43 KDTX 182010
RWRMI
MICHIGAN HOURLY REGIONAL WEATHER ROUNDUP
NATIONAL WEATHER SERVICE DETROIT/PONTIAC MI
400 PM EDT MON SEP 18 2017

NOTE: "FAIR" INDICATES FEW OR NO CLOUDS BELOW 12,000 FEET WITH NO
SIGNIFICANT WEATHER AND/OR OBSTRUCTION TO VISIBILITY.

MIZ047>049-052>055-059>063-066>070-074>076-081>083-182100-
SOUTHEAST LOWER MICHIGAN

CITY           SKY/WX    TMP DP  RH WIND       PRES   REMARKS
ADRIAN         PTSUNNY   76  64  66 NW7       30.05F
ALMA           SUNNY     74  48  40 W6        30.07F
ANN ARBOR      CLOUDY    72  67  84 NW8       30.06F
BAD AXE        CLOUDY    69  53  57 N7        30.10S
CARO           MOSUNNY   71  55  55 N3        30.08F
DETROIT CITY   CLOUDY    67  66  97 N8        30.07S
DETROIT        CLOUDY    71  67  87 NE8       30.06S
FLINT          PTSUNNY   74  61  63 N6        30.07F
GROSSE ILE     LGT RAIN  69  67  93 NE9       30.05S
HILLSDALE      CLOUDY    75  59  57 CALM      30.06F
HOWELL         CLOUDY    70  63  78 NW5       30.08F

CITY           SKY/WX    TMP DP  RH WIND       PRES   REMARKS
JACKSON        MOSUNNY   78  56  46 CALM      30.05F
LAMBERTVILLE   CLOUDY    75  68  79 SE5       30.04S
LANSING        MOSUNNY   77  56  48 NE7       30.06F
LAPEER         CLOUDY    70  59  69 E3        30.09F
MASON          SUNNY     75  58  55 NE6       30.07F
MONROE         HVY RAIN  72  69  90 SE6       30.04F
MT. CLEMENS    CLOUDY    65  65 100 NE8       30.06S
PONTIAC        CLOUDY    69  65  86 NE6       30.07F
PORT HOPE        N/A     66  55  67 N9        30.09F
PORT HURON     CLOUDY    66  61  82 NE7       30.09S
TRI CITIES     SUNNY     73  54  51 VRB5      30.08F
MIDLAND        FAIR      73  55  52 CALM      30.07F
TROY           CLOUDY    68  65  89 NE8       30.09S
SAGINAW HB     SUNNY     72  52  49 NE8       30.08F
$$
MIZ043>046-050>051-056>058-064>065-071>073-077>080-182100-
SOUTHWEST LOWER MICHIGAN

CITY           SKY/WX    TMP DP  RH WIND       PRES   REMARKS
BATTLE CREEK   SUNNY     77  45  32 VRB3      30.07F
BENTON HARBOR  SUNNY     72  59  63 N5        30.05F
BIG RAPIDS     SUNNY     71  47  41 N6        30.06F
COLDWATER      SUNNY     76  53  43 E3        30.05F
FREMONT        FAIR      75  49  39 E3        30.05F
HOLLAND        SUNNY     76  50  40 S3        30.06F
GRAND RAPIDS   MOSUNNY   79  50  36 CALM      30.05F
IONIA          FAIR      76  50  40 E6        30.05F
KALAMAZOO      SUNNY     77  49  37 E5        30.06F
LUDINGTON      SUNNY     72  50  45 NE7       30.06F
MARSHALL       SUNNY     76  57  52 NW3       30.06F
MOUNT PLEASANT SUNNY     76  49  37 E6        30.06F
MUSKEGON       MOSUNNY   73  59  61 W10       30.06F
SOUTH HAVEN    SUNNY     74  58  57 NW6       30.05F
$$
MIZ016>042-182100-
NORTHERN LOWER MICHIGAN

CITY           SKY/WX    TMP DP  RH WIND       PRES   REMARKS
ALPENA         SUNNY     70  43  37 NW9       30.09F
BEAVER ISLAND  SUNNY     67  46  45 NE7       30.12S
BELLAIRE       SUNNY     69  46  43 NW7       30.09F
CADILLAC       SUNNY     72  45  37 N5        30.08F
CHARLEVOIX     SUNNY     64  47  55 NW8       30.14F
FRANKFORT      SUNNY     70  53  53 NW10      30.09S
GAYLORD        SUNNY     68  47  46 NE7       30.10F
GRAYLING       SUNNY     69  48  46 E5        30.10F
HARBOR SPRINGS SUNNY     65  49  55 W6        30.10F
HOUGHTON LAKE  SUNNY     72  48  42 CALM      30.09F
MANISTEE       SUNNY     72  50  45 CALM      30.07F
OSCODA         SUNNY     70  53  56 NE9       30.08F
PELLSTON       SUNNY     71  44  37 NE6       30.10F
ROGERS CITY    SUNNY     65  47  51 NW8       30.12S
TRAVERSE CITY  MOSUNNY   68  48  48 N6        30.08F
$$
MIZ007>008-015-182100-
EASTERN UPPER MICHIGAN

CITY           SKY/WX    TMP DP  RH WIND       PRES   REMARKS
KINROSS        SUNNY     66  39  37 NW8       30.11F
MACKINAC ISLAN SUNNY     64  49  59 SW5       30.10F
NEWBERRY       SUNNY     67  44  44 NW3       30.11F
S. S. MARIE    SUNNY     66  51  58 W10       30.10F
MUNISING         N/A     63  54  72 NE13      30.12S
$$
MIZ004>006-011>014-085-182100-
CENTRAL UPPER MICHIGAN

CITY           SKY/WX    TMP DP  RH WIND       PRES   REMARKS
MANISTIQUE       N/A     64  45  49 MISG        N/A
ESCANABA       SUNNY     64  48  56 S7        30.12F
MENOMINEE      SUNNY     66  51  58 SE7       30.12F
SAWYER-GWINN   SUNNY     64  46  52 CALM      30.12F
$$
MIZ001>003-009>011-084-182100-
WESTERN UPPER MICHIGAN

CITY           SKY/WX    TMP DP  RH WIND       PRES   REMARKS
IRON MOUNTAIN  MOSUNNY   69  49  48 S7        30.10F
HOUGHTON       CLOUDY    58  49  72 SE8       30.09F
COPPER HARBOR    N/A     58  47  66 VRB6      30.09F
IRONWOOD       RAIN      57  52  83 S8        30.09F
$$

ABBREVIATIONS USED IN REMARKS
   TC - TEMPERATURE IN CELSIUS
  WCI - WIND CHILL INDEX
   HX - HEAT INDEX
  VSB - VISIBILITY





USA.gov is the U.S. government's official web portal to all federal, state and local government web resources and services.